Tracking 29892 objects as of 21-Nov-2024
HD Live streaming from Space Station
objects crossing your sky now

UFO 2 (USA 95)

Track UFO 2 (USA 95) now!
UFO 2 (USA 95) is classified as:


NORAD ID: 22787
Int'l Code: 1993-056A
Perigee: 35,774.6 km
Apogee: 35,812.8 km
Inclination: 11.7 °
Period: 1,436.1 minutes
Semi major axis: 42164 km
RCS: Unknown
Launch date: September 3, 1993
Source: United States (US)
Launch site: AIR FORCE EASTERN TEST RANGE (AFETR)
Your satellite tracking list
Your tracking list is empty




NASA's NSSDC Master Catalog

Two Line Element Set (TLE):
1 22787U 93056A   24325.76068406  .00000123  00000-0  00000-0 0  9998
2 22787  11.7044   6.5709 0004530 229.7524 126.4613  1.00272081112799
Source of the keplerian elements: McCants